Location: Unspecified
(51.0000°N, 12.0000°E)
Time: 10:49:24
(UTC+02:00)

ISS - Visible Passes

Search period start: 09 May 2021 00:00
Search period end: 19 May 2021 00:00
Orbit: 418 x 421 km, 51.6° (Epoch: 09 May)

Date Brightness Start Highest point End Pass type
(mag) Time Alt. Az. Time Alt. Az. Time Alt. Az.
09 May -2.7 02:03:26 35° E 02:03:26 35° E 02:05:39 10° E visible
09 May -3.7 03:36:22 15° W 03:39:06 78° N 03:42:31 10° E visible
10 May -1.3 01:17:27 15° E 01:17:27 15° E 01:18:10 10° E visible
10 May -3.8 02:50:22 35° W 02:51:39 82° N 02:55:03 10° E visible
10 May -3.8 04:25:09 10° W 04:28:32 85° SSW 04:31:56 10° ESE visible
11 May -3.8 02:04:20 82° E 02:04:20 82° E 02:07:36 10° E visible
11 May -3.7 03:37:42 10° W 03:41:06 84° N 03:44:29 10° E visible
12 May -2.4 01:18:15 31° E 01:18:15 31° E 01:20:09 10° ENE visible
12 May -3.7 02:51:11 17° W 02:53:38 78° N 02:57:01 10° E visible
12 May -3.6 04:27:05 10° W 04:30:25 53° SSW 04:33:43 10° SE visible
13 May -1.3 00:32:05 14° E 00:32:05 14° E 00:32:41 10° E visible
13 May -3.7 02:05:00 38° W 02:06:09 78° N 02:09:33 10° E visible
13 May -3.8 03:39:37 10° WNW 03:43:00 70° SSW 03:46:23 10° ESE visible
14 May -3.8 01:18:35 80° NW 01:18:41 82° N 01:22:05 10° E visible
14 May -3.9 02:52:11 10° W 02:55:34 85° S 02:58:57 10° ESE visible
14 May -2.8 04:29:10 10° W 04:32:08 28° SSW 04:35:05 10° SSE visible
14 May -3.0 22:51:36 10° SSW 22:54:37 31° SSE 22:55:36 26° ESE visible
15 May -3.9 00:27:51 10° WSW 00:31:13 88° S 00:34:37 10° E visible
15 May -3.8 02:04:43 10° W 02:08:06 84° N 02:11:30 10° E visible
15 May -3.3 03:41:36 10° W 03:44:47 39° SSW 03:47:58 10° SE visible
15 May -2.5 22:04:38 10° SSW 22:07:19 22° SE 22:10:00 10° E visible
15 May -3.9 23:40:24 10° WSW 23:43:46 74° SSE 23:47:09 10° ENE visible
16 May -3.7 01:17:15 10° W 01:20:38 78° N 01:24:01 10° E visible
16 May -3.7 02:54:06 10° W 02:57:25 53° SSW 03:00:43 10° SE visible
16 May -1.9 04:31:50 10° WSW 04:33:40 14° SW 04:35:30 10° S visible
16 May -3.8 22:53:01 10° WSW 22:56:21 58° SSE 22:59:41 10° E visible
17 May -3.7 00:29:45 10° W 00:33:09 78° N 00:36:32 10° E visible
17 May -3.9 02:06:37 10° WNW 02:09:59 69° SSW 02:13:21 10° ESE visible
17 May -2.4 03:43:51 10° W 03:46:24 20° SW 03:48:57 10° SSE visible
17 May -3.4 22:05:44 10° SW 22:08:57 43° SSE 22:12:10 10° E visible
17 May -3.7 23:42:16 10° W 23:45:39 82° N 23:49:02 10° E visible
18 May -3.9 01:19:09 10° W 01:22:32 84° SSW 01:22:50 72° ESE visible
18 May -3.8 22:54:48 10° WSW 22:58:10 89° S 23:01:34 10° E visible
